Location: Lake Crest
(37.6062°N, 88.9176°W)
Time: 19:24:14
(UTC+00:00)

Cosmos 2180 Rocket - Pass Details

Date: 15 December 2019
Orbit: 954 x 1004 km, 82.9° (Epoch: 27 January)

Event Time Altitude Azimuth Distance (km) Brightness Sun altitude
Rises 11:26:23 0° 191° (S) 3,615 7.5 -18.5°
Reaches altitude 10° 11:28:53 10° 194° (SSW) 2,674 6.8 -18.1°
Maximum altitude 11:34:58 71° 278° (W) 1,011 4.4 -16.9°
Drops below altitude 10° 11:41:08 10° 2° (N) 2,707 6.7 -15.7°
Sets 11:43:41 0° 5° (N) 3,664 7.4 -15.3°
